DW9271 Weather Reports


Display with metric or nautical units.
time (UTC)temp
F
wind
direction
speed
MPH
gust
MPH
rain 1hr
in
rain 24hr
in
rain mn
in
humidity
%
barometer
mb
20260831033106 71 133 0.0 3.0 0.00 0.02 0.02 90 1011.4
20260831031553 72 133 0.0 1.0 0.00 0.02 0.02 90 1011.5
20260831030052 71 133 0.0 3.0 0.00 0.02 0.02 90 1011.2
20260831024551 72 132 0.0 2.0 0.00 0.02 0.02 89 1011.2
20260831023050 72 132 2.0 4.0 0.00 0.02 0.02 88 1011.1
20260831021550 72 134 1.0 5.0 0.00 0.02 0.02 88 1011.0
20260831020106 72 132 3.0 5.0 0.00 0.02 0.02 87 1010.8
20260831014549 72 126 2.0 4.0 0.00 0.02 0.02 86 1010.8
20260831013048 72 28 0.0 2.0 0.00 0.02 0.02 85 1011.0
20260831011548 73 27 0.0 0.0 0.00 0.02 0.02 86 1011.1
20260831010049 74 27 0.0 0.0 0.00 0.02 0.02 86 1010.8
20260831004553 74 27 0.0 0.0 0.00 0.02 0.02 85 1010.6
20260831003047 75 27 0.0 2.0 0.00 0.02 0.02 85 1010.5
20260831001546 75 27 0.0 1.0 0.00 0.02 0.02 84 1010.5
20260831000047 76 27 0.0 1.0 0.00 0.02 0.02 82 1010.4
20260830234544 76 27 0.0 2.0 0.00 0.02 0.02 82 1010.3
20260830233046 76 27 0.0 1.0 0.00 0.02 0.02 80 1010.2
20260830231545 77 27 0.0 2.0 0.00 0.02 0.02 79 1010.1
20260830230043 77 26 0.0 4.0 0.00 0.02 0.02 78 1010.1
20260830224543 77 44 0.0 6.0 0.00 0.02 0.02 77 1010.0
20260830223041 77 11 0.0 3.0 0.00 0.02 0.02 77 1009.7
20260830221543 77 41 0.0 1.0 0.00 0.02 0.02 77 1009.3
20260830220046 77 22 0.0 3.0 0.00 0.02 0.02 77 1009.4
20260830214540 77 22 0.0 4.0 0.00 0.02 0.02 76 1009.9
20260830213039 77 83 1.0 7.0 0.00 0.02 0.02 76 1009.6
20260830211537 78 355 0.0 3.0 0.00 0.02 0.02 77 1009.6
20260830210036 78 76 0.0 3.0 0.00 0.02 0.02 75 1009.7
20260830204536 79 82 0.0 4.0 0.00 0.02 0.02 72 1010.2
20260830203039 80 325 0.0 4.0 0.00 0.02 0.02 70 1010.2
20260830201534 81 243 0.0 2.0 0.00 0.02 0.02 67 1010.1
20260830200034 82 160 0.0 5.0 0.00 0.02 0.02 65 1010.3
20260830194535 82 288 1.0 4.0 0.00 0.02 0.02 64 1010.2
20260830193033 82 292 2.0 6.0 0.00 0.02 0.02 65 1010.3
20260830191539 82 344 2.0 4.0 0.00 0.02 0.02 64 1010.4
20260830190031 82 286 0.0 4.0 0.00 0.03 0.02 63 1010.2
20260830184531 84 234 1.0 6.0 0.00 0.03 0.02 61 1010.0
20260830183029 84 338 1.0 4.0 0.00 0.03 0.02 60 1009.8
20260830181528 83 291 0.0 5.0 0.00 0.03 0.02 61 1009.6
20260830180026 84 193 1.0 6.0 0.00 0.03 0.02 61 1009.6
20260830174525 83 236 0.0 4.0 0.00 0.03 0.02 62 1009.9
20260830173021 82 184 0.0 4.0 0.00 0.03 0.02 63 1009.8
20260830171519 82 304 3.0 11.0 0.00 0.03 0.02 63 1009.9
20260830170035 81 298 2.0 6.0 0.00 0.03 0.02 65 1009.9
20260830164514 80 240 3.0 8.0 0.00 0.03 0.02 65 1010.2
20260830163013 80 201 0.0 3.0 0.00 0.03 0.02 65 1010.1
20260830161509 80 304 1.0 6.0 0.00 0.03 0.02 66 1010.5
20260830160006 79 215 1.0 5.0 0.00 0.03 0.02 70 1010.7
20260830154504 78 204 1.0 4.0 0.00 0.03 0.02 71 1010.5
20260830153058 77 194 0.0 2.0 0.00 0.03 0.02 74 1010.5
20260830150031 76 198 0.0 4.0 0.00 0.03 0.02 77 1010.7
20260830144531 75 200 0.0 6.0 0.00 0.03 0.02 78 1010.6
20260830143027 74 207 0.0 6.0 0.00 0.03 0.02 79 1010.3
20260830141524 74 202 0.0 5.0 0.00 0.03 0.02 80 1010.3
20260830140025 73 203 0.0 4.0 0.00 0.03 0.02 83 1010.8
20260830134515 72 94 0.0 4.0 0.00 0.03 0.02 84 1010.7
20260830133023 71 198 0.0 0.0 0.00 0.03 0.02 86 1010.8
20260830131511 70 165 0.0 2.0 0.00 0.03 0.02 86 1011.1
20260830130010 69 152 0.0 1.0 0.00 0.03 0.02 87 1010.8
20260830124509 69 152 0.0 1.0 0.00 0.03 0.02 88 1010.9
20260830123009 69 152 0.0 0.0 0.00 0.03 0.02 89 1011.0
20260830121508 68 157 0.0 2.0 0.00 0.03 0.02 90 1010.8
20260830120009 68 157 1.0 5.0 0.00 0.03 0.02 90 1010.8
20260830114508 68 157 0.0 3.0 0.00 0.03 0.02 90 1010.6
20260830113007 68 158 1.0 5.0 0.00 0.03 0.02 90 1010.4
20260830111506 68 165 0.0 3.0 0.00 0.03 0.02 90 1010.5
20260830110006 68 165 0.0 3.0 0.00 0.03 0.02 90 1010.3
20260830104504 68 165 0.0 2.0 0.00 0.03 0.02 89 1010.3
20260830103012 68 165 0.0 2.0 0.00 0.03 0.02 89 1010.3
20260830101504 68 166 0.0 1.0 0.00 0.03 0.02 89 1010.2
20260830100001 69 166 0.0 1.0 0.00 0.03 0.02 89 1010.4
20260830094601 69 166 0.0 2.0 0.00 0.03 0.02 89 1010.7
20260830093057 69 166 0.0 1.0 0.00 0.03 0.02 89 1011.0
20260830091557 69 166 0.0 2.0 0.00 0.03 0.02 89 1011.1
20260830090056 69 166 0.0 0.0 0.00 0.03 0.02 90 1011.1
20260830084556 68 166 0.0 1.0 0.00 0.03 0.02 90 1011.2
20260830083054 68 166 0.0 1.0 0.00 0.03 0.02 90 1011.2
20260830081554 68 166 0.0 1.0 0.00 0.03 0.02 90 1011.1
20260830080055 68 166 0.0 1.0 0.00 0.03 0.02 90 1011.2
20260830074554 68 211 0.0 4.0 0.01 0.03 0.02 91 1011.1
20260830073052 68 173 0.0 2.0 0.02 0.03 0.02 91 1011.3
20260830071550 68 181 0.0 2.0 0.02 0.03 0.02 91 1011.4
20260830070046 69 189 0.0 2.0 0.02 0.03 0.02 89 1011.5
20260830064554 69 193 0.0 1.0 0.01 0.02 0.01 87 1011.8
20260830063041 70 163 0.0 4.0 0.00 0.01 0.00 85 1011.9
20260830061539 71 76 0.0 2.0 0.00 0.01 0.00 83 1011.9
20260830060036 71 163 0.0 0.0 0.00 0.01 0.00 82 1012.1
20260830054535 71 149 0.0 3.0 0.00 0.01 0.00 82 1012.2
20260830053037 71 194 0.0 3.0 0.00 0.01 0.00 83 1012.3
20260830051532 71 140 0.0 4.0 0.00 0.01 0.00 83 1012.4
20260830050031 71 140 0.0 5.0 0.00 0.01 0.01 83 1012.6
20260830044534 71 93 0.0 3.0 0.00 0.01 0.01 83 1012.7
20260830043029 70 201 0.0 2.0 0.00 0.01 0.01 84 1012.6
20260830041528 70 129 0.0 4.0 0.00 0.01 0.01 85 1012.8
20260830040026 70 150 2.0 6.0 0.00 0.01 0.01 86 1012.9
20260830034526 70 141 1.0 7.0 0.00 0.01 0.01 86 1013.0